TimeCEST,TemperatureF,Dew PointF,Humidity,Sea Level PressureIn,VisibilityMPH,Wind Direction,Wind SpeedMPH,Gust SpeedMPH,PrecipitationIn,Events,Conditions,WindDirDegrees,DateUTC
7:00 AM,46.4,44.6,93,29.56,6.2,WSW,9.2,-,N/A,,Scattered Clouds,250,2013-04-01 05:00:00
7:30 AM,46.4,46.4,100,29.56,6.2,WSW,9.2,-,N/A,,Scattered Clouds,250,2013-04-01 05:30:00
8:00 AM,46.4,42.8,87,29.56,6.2,WSW,12.7,-,N/A,,Scattered Clouds,250,2013-04-01 06:00:00
8:30 AM,44.6,41.0,87,29.59,6.2,WSW,8.1,-,N/A,,Scattered Clouds,250,2013-04-01 06:30:00
9:00 AM,46.4,44.6,93,29.59,6.2,WSW,10.4,-,N/A,,Scattered Clouds,250,2013-04-01 07:00:00
9:30 AM,48.2,46.4,93,29.62,6.2,West,9.2,-,N/A,,Scattered Clouds,260,2013-04-01 07:30:00
10:00 AM,50.0,42.8,76,29.62,6.2,WSW,12.7,-,N/A,,Scattered Clouds,250,2013-04-01 08:00:00
10:30 AM,50.0,44.6,82,29.62,6.2,WSW,15.0,-,N/A,,Scattered Clouds,250,2013-04-01 08:30:00
11:00 AM,50.0,41.0,71,29.65,6.2,WSW,13.8,-,N/A,,Scattered Clouds,250,2013-04-01 09:00:00
11:30 AM,50.0,39.2,66,29.65,6.2,West,15.0,-,N/A,,Mostly Cloudy,260,2013-04-01 09:30:00
12:30 PM,53.6,37.4,54,29.68,6.2,West,18.4,-,N/A,,Mostly Cloudy,270,2013-04-01 10:30:00
1:00 PM,51.8,33.8,50,29.68,6.2,West,17.3,-,N/A,,Mostly Cloudy,280,2013-04-01 11:00:00
1:30 PM,53.6,33.8,47,29.68,6.2,WNW,15.0,-,N/A,,Mostly Cloudy,290,2013-04-01 11:30:00
2:00 PM,53.6,37.4,54,29.68,6.2,WSW,13.8,-,N/A,,Mostly Cloudy,240,2013-04-01 12:00:00
2:30 PM,55.4,41.0,58,29.68,6.2,WSW,16.1,-,N/A,,Mostly Cloudy,240,2013-04-01 12:30:00
3:00 PM,55.4,41.0,58,29.65,6.2,SW,13.8,-,N/A,,Mostly Cloudy,230,2013-04-01 13:00:00
3:30 PM,57.2,42.8,59,29.65,6.2,WSW,17.3,-,N/A,,Mostly Cloudy,240,2013-04-01 13:30:00
4:00 PM,55.4,41.0,58,29.65,6.2,WSW,16.1,-,N/A,,Mostly Cloudy,250,2013-04-01 14:00:00
4:30 PM,51.8,42.8,71,29.68,6.2,WSW,19.6,-,N/A,,Mostly Cloudy,250,2013-04-01 14:30:00
5:00 PM,51.8,42.8,71,29.68,6.2,West,10.4,-,N/A,,Mostly Cloudy,280,2013-04-01 15:00:00
5:30 PM,48.2,46.4,93,29.68,6.2,WSW,4.6,-,N/A,Rain,Light Rain,250,2013-04-01 15:30:00
6:30 PM,53.6,42.8,67,29.68,6.2,WSW,19.6,-,N/A,,Scattered Clouds,250,2013-04-01 16:30:00
6:43 PM,48.2,39.2,71,29.68,6.2,NW,16.1,-,N/A,Rain,Light Rain,310,2013-04-01 16:43:00
7:00 PM,46.4,42.8,87,29.68,6.2,WNW,9.2,-,N/A,,Mostly Cloudy,290,2013-04-01 17:00:00
7:30 PM,48.2,42.8,82,29.71,6.2,West,23.0,34.5,N/A,,Mostly Cloudy,280,2013-04-01 17:30:00
8:00 PM,46.4,42.8,87,29.71,6.2,West,19.6,-,N/A,Rain,Rain,260,2013-04-01 18:00:00
8:30 PM,46.4,42.8,87,29.71,6.2,WSW,13.8,-,N/A,,Mostly Cloudy,250,2013-04-01 18:30:00
9:00 PM,46.4,42.8,87,29.71,6.2,West,9.2,-,N/A,,Mostly Cloudy,260,2013-04-01 19:00:00
9:30 PM,44.6,42.8,93,29.74,6.2,West,10.4,-,N/A,,Mostly Cloudy,270,2013-04-01 19:30:00
10:00 PM,44.6,41.0,87,29.74,6.2,West,11.5,-,N/A,,Scattered Clouds,260,2013-04-01 20:00:00
10:30 PM,44.6,41.0,87,29.77,6.2,West,8.1,-,N/A,,Partly Cloudy,260,2013-04-01 20:30:00